Hourly Data Report for October 29, 2013

All times are specified in Local Standard Time (LST). Add 1 hour to adjust for Daylight Saving Time where and when it is observed.

MONCTON INTL A
NEW BRUNSWICK

46°06'44.000" N
64°40'43.000" W
70.70 m
8103201
71705
YQM

Download Data

Hourly Data (October 2013)
Hourly Data Report for October 29, 2013
Temp Definition
°C
Dew Point Temp Definition
°C
Rel Hum Definition
%
Wind Dir Definition
10's deg

Wind Spd Definition
km/h
Visibility Definition
km
Stn Press Definition
kPa
Hmdx Definition


Wind Chill Definition


Weather Definition


TIME
00:00 Legend Double Dagger -1.4 -2.4 93 25 15 24.1 101.41   -6 LegendNANA
01:00 Legend Double Dagger -2.1 -2.8 95 21 14 24.1 101.47   -7 LegendNANA
02:00 Legend Double Dagger -2.6 -3.3 95 21 13 24.1 101.51   -7 Clear
03:00 Legend Double Dagger -2.7 -3.5 94 22 14 24.1 101.56   -8 LegendNANA
04:00 Legend Double Dagger -3.0 -3.7 95 23 16 24.1 101.59   -8 LegendNANA
05:00 Legend Double Dagger -3.2 -4.0 94 22 18 24.1 101.66   -9 Clear
06:00 Legend Double Dagger -3.5 -4.5 93 22 14 24.1 101.72   -9 LegendNANA
07:00 Legend Double Dagger -3.4 -4.5 92 23 18 24.1 101.78   -9 LegendNANA
08:00 Legend Double Dagger -2.4 -3.8 90 23 21 24.1 101.84   -8 Clear
09:00 Legend Double Dagger -1.0 -2.9 87 24 20 24.1 101.87   -7 LegendNANA
10:00 Legend Double Dagger 0.6 -2.1 82 24 19 24.1 101.87     LegendNANA
11:00 Legend Double Dagger 2.5 -1.3 76 25 15 24.1 101.84     Mainly Clear
12:00 Legend Double Dagger 3.8 -2.6 63 25 23 24.1 101.78     LegendNANA
13:00 Legend Double Dagger 4.5 -4.0 54 24 29 24.1 101.71     LegendNANA
14:00 Legend Double Dagger 5.2 -3.4 54 28 23 24.1 101.68     Mainly Clear
15:00 Legend Double Dagger 4.8 -6.2 45 28 23 24.1 101.70     LegendNANA
16:00 Legend Double Dagger 4.2 -6.4 46 29 21 24.1 101.75     LegendNANA
17:00 Legend Double Dagger 2.8 -6.4 51 27 17 24.1 101.81     Clear
18:00 Legend Double Dagger 0.6 -5.9 62 29 11 24.1 101.85     LegendNANA
19:00 Legend Double Dagger -0.8 -6.2 67 31 13 24.1 101.89   -5 LegendNANA
20:00 Legend Double Dagger -1.7 -6.5 70 30 12 24.1 101.91   -6 Mainly Clear
21:00 Legend Double Dagger -2.0 -6.4 72 27 9 24.1 101.94   -5 LegendNANA
22:00 Legend Double Dagger -3.7 -6.2 83 25 10 24.1 101.91   -8 LegendNANA
23:00 Legend Double Dagger -3.7 -6.2 83 24 10 24.1 101.85   -8 Clear

Notes on Data Quality.

Legend

  • E = Estimated
  • M = Missing
  • NA = Not Available
  • ‡ = Partner data that is not subject to review by the National Climate Archives
Date modified: